This demonstration page uses our WeatherBlox Daily Observations layout. Learn more.

Left ArrowRight Arrow

Hourly Observations for April 3, 2020

Temp ( °F °C ) Dew Point ( °F °C ) Humidity (%) Winds ( mph kmh ) Pressure ( in mb ) Visibility ( mi km ) Precip ( " mm )
12:53 am 00:53 Clear 43 6.1 32 0 65 65 N 5 7 30.05 1018 10 16 0.00 0.00
1:53 am 01:53 Clear 43 6.1 32 0 65 65 N 6 9 30.05 1018 10 16 0.00 0.00
2:53 am 02:53 Clear 44 6.7 30 -1.1 58 58 N 3 6 30.04 1017 10 16 0.00 0.00
3:53 am 03:53 Clear 39 3.9 32 0 76 76 Calm 30.04 1017 10 16 0.00 0.00
4:53 am 04:53 Clear 38 3.3 31 -0.6 76 76 Calm 30.04 1017 10 16 0.00 0.00
5:53 am 05:53 Clear 47 8.3 29 -1.7 50 50 NNW 6 9 30.04 1017 10 16 0.00 0.00
6:53 am 06:53 Sunny 36 2.2 30 -1.1 79 79 Calm 30.05 1018 10 16 0.00 0.00
7:53 am 07:53 Sunny 38 3.3 31 -0.6 76 76 Calm 30.06 1018 10 16 0.00 0.00
8:53 am 08:53 Sunny 52 11.1 29 -1.7 41 41 WNW 8 13 30.06 1018 10 16 0.00 0.00
9:53 am 09:53 Sunny 55 12.8 29 -1.7 37 37 N 13 20 30.06 1018 10 16 0.00 0.00
10:53 am 10:53 Sunny 57 13.9 28 -2.2 33 33 NNW 8 13 30.05 1018 10 16 0.00 0.00
11:53 am 11:53 Sunny 60 15.6 27 -2.8 28 28 N 13 20 30.03 1017 10 16 0.00 0.00
12:53 pm 12:53 Sunny 62 16.7 22 -5.6 21 21 VRB 6 9 30.01 1016 10 16 0.00 0.00
1:53 pm 13:53 Sunny 63 17.2 26 -3.3 25 25 undefined N/A 29.98 1015 10 16 0.00 0.00
2:53 pm 14:53 Sunny 65 18.3 23 -5 20 20 NE 5 7 29.95 1014 10 16 0.00 0.00
3:53 pm 15:53 Sunny 65 18.3 21 -6.1 19 19 VRB 5 7 29.92 1013 10 16 0.00 0.00
4:53 pm 16:53 Sunny 66 18.9 22 -5.6 19 19 E 7 11 29.89 1012 10 16 0.00 0.00
5:53 pm 17:53 Sunny 65 18.3 26 -3.3 23 23 SSE 6 9 29.87 1012 10 16 0.00 0.00
6:53 pm 18:53 Sunny 63 17.2 28 -2.2 27 27 SSE 8 13 29.87 1012 10 16 0.00 0.00
7:53 pm 19:53 Clear 58 14.4 29 -1.7 33 33 S 7 11 29.87 1011 10 16 0.00 0.00
8:53 pm 20:53 Clear 54 12.2 32 0 43 43 S 6 9 29.87 1012 10 16 0.00 0.00
9:53 pm 21:53 Clear 53 11.7 33 0.6 47 47 SSW 7 11 29.88 1012 10 16 0.00 0.00
10:53 pm 22:53 Clear 49 9.4 33 0.6 55 55 ENE 3 6 29.89 1012 10 16 0.00 0.00
11:53 pm 23:53 Clear 49 9.4 33 0.6 55 55 Calm 29.88 1012 10 16 0.00 0.00

Powered by AerisWeather